When you browse on this site, cookies collect data to enhance your experience and personalize the content and advertising you see.
Visit our Privacy Policy to learn more. By continuing to use the site, you agree to this use of cookies and data.
  • In Hungary
  • List of Countries
  • For 7 days
  • Water Temperature
  • Weather Map
  • News
  • Weather Widgets
  • user-avatar
    Login

    Hourly Weather Verhnenazargulovo

    Today, 14 October, Monday

    Time Temperature Precipitation Wind Pressure Humidity
    00:00 +6°C° 0.8 mm 9 mps 722 mmHg 88%
    01:00 +6°C° 0.8 mm 8 mps 721 mmHg 92%
    02:00 +6°C° 0.8 mm 8 mps 721 mmHg 93%
    03:00 +8°C° 0.8 mm 7 mps 721 mmHg 94%
    04:00 +8°C° 0 mm 6 mps 721 mmHg 94%
    05:00 +7°C° 0.3 mm 5 mps 721 mmHg 94%
    06:00 +7°C° 0.3 mm 5 mps 721 mmHg 94%
    07:00 +6°C° 0.3 mm 4 mps 720 mmHg 94%
    08:00 +7°C° 0 mm 5 mps 721 mmHg 85%
    09:00 +8°C° 0 mm 6 mps 721 mmHg 76%
    10:00 +9°C° 0 mm 7 mps 722 mmHg 66%
    11:00 +9°C° 0.1 mm 7 mps 722 mmHg 66%
    12:00 +9°C° 0.1 mm 7 mps 722 mmHg 66%
    13:00 +9°C° 0.1 mm 8 mps 722 mmHg 65%
    14:00 +9°C° 0.1 mm 7 mps 723 mmHg 66%
    15:00 +9°C° 0.1 mm 7 mps 723 mmHg 67%
    16:00 +9°C° 0 mm 7 mps 724 mmHg 67%
    17:00 +8°C° 0 mm 7 mps 724 mmHg 69%
    18:00 +7°C° 0 mm 6 mps 725 mmHg 72%
    19:00 +5°C° 0 mm 6 mps 725 mmHg 74%
    20:00 +5°C° 0 mm 6 mps 725 mmHg 77%
    21:00 +5°C° 0 mm 6 mps 726 mmHg 79%
    22:00 +5°C° 0 mm 5 mps 726 mmHg 82%
    23:00 +5°C° 0 mm 5 mps 726 mmHg 84%

    Tomorrow, 15 October, Tuesday

    Time Temperature Precipitation Wind Pressure Humidity
    00:00 +5°C° 0 mm 5 mps 726 mmHg 86%
    01:00 +3°C° 0 mm 5 mps 726 mmHg 88%
    02:00 +3°C° 0 mm 5 mps 726 mmHg 89%
    03:00 +3°C° 0 mm 5 mps 726 mmHg 90%
    04:00 +5°C° 0 mm 5 mps 726 mmHg 91%
    05:00 +4°C° 0 mm 4 mps 726 mmHg 93%
    06:00 +4°C° 0 mm 4 mps 726 mmHg 94%
    07:00 +3°C° 0 mm 4 mps 726 mmHg 96%
    08:00 +3°C° 0.1 mm 5 mps 726 mmHg 93%
    09:00 +4°C° 0.1 mm 6 mps 725 mmHg 91%
    10:00 +5°C° 0.1 mm 7 mps 725 mmHg 88%
    11:00 +5°C° 1.1 mm 9 mps 724 mmHg 88%
    12:00 +6°C° 1.1 mm 10 mps 723 mmHg 88%
    13:00 +6°C° 1.1 mm 11 mps 722 mmHg 88%
    14:00 +8°C° 0.8 mm 11 mps 722 mmHg 86%
    15:00 +9°C° 0.8 mm 10 mps 721 mmHg 84%
    16:00 +12°C° 0.8 mm 10 mps 720 mmHg 81%
    17:00 +12°C° 0.3 mm 9 mps 720 mmHg 79%
    18:00 +12°C° 0.3 mm 9 mps 720 mmHg 77%
    19:00 +12°C° 0.3 mm 8 mps 720 mmHg 75%
    20:00 +11°C° 0.1 mm 8 mps 720 mmHg 78%
    21:00 +11°C° 0.1 mm 8 mps 720 mmHg 82%
    22:00 +10°C° 0.1 mm 8 mps 719 mmHg 86%
    23:00 +9°C° 0 mm 8 mps 720 mmHg 86%

    Day after tomorrow, 16 October, Wednesday

    Time Temperature Precipitation Wind Pressure Humidity
    00:00 +9°C° 0 mm 8 mps 720 mmHg 87%
    01:00 +7°C° 0 mm 8 mps 720 mmHg 87%
    02:00 +6°C° 0 mm 7 mps 721 mmHg 86%
    03:00 +6°C° 0 mm 7 mps 722 mmHg 85%
    04:00 +5°C° 0 mm 6 mps 722 mmHg 84%
    05:00 +4°C° 0 mm 6 mps 723 mmHg 83%
    06:00 +5°C° 0 mm 5 mps 723 mmHg 83%
    07:00 +4°C° 0 mm 4 mps 724 mmHg 82%
    08:00 +5°C° 0.1 mm 5 mps 724 mmHg 78%
    09:00 +5°C° 0.1 mm 5 mps 725 mmHg 74%
    10:00 +5°C° 0.1 mm 5 mps 725 mmHg 69%
    11:00 +4°C° 0 mm 6 mps 726 mmHg 66%
    12:00 +4°C° 0 mm 6 mps 726 mmHg 63%
    13:00 +5°C° 0 mm 7 mps 727 mmHg 60%
    14:00 +4°C° 0 mm 7 mps 727 mmHg 61%
    15:00 +4°C° 0 mm 7 mps 728 mmHg 61%
    16:00 +3°C° 0 mm 7 mps 728 mmHg 62%
    17:00 +2°C° 0 mm 6 mps 729 mmHg 66%
    18:00 +1°C° 0 mm 5 mps 729 mmHg 70%
    19:00 0°C° 0 mm 5 mps 730 mmHg 75%
    20:00 0°C° 0 mm 4 mps 730 mmHg 76%
    21:00 -1°C° 0 mm 4 mps 731 mmHg 78%
    22:00 -1°C° 0 mm 4 mps 731 mmHg 80%
    23:00 -1°C° 0 mm 3 mps 731 mmHg 82%

    17 October, Thursday

    Time Temperature Precipitation Wind Pressure Humidity
    00:00 -1°C° 0 mm 3 mps 732 mmHg 84%
    01:00 -1°C° 0 mm 3 mps 732 mmHg 86%
    02:00 -1°C° 0 mm 3 mps 732 mmHg 86%
    03:00 -2°C° 0 mm 2 mps 733 mmHg 85%
    04:00 -2°C° 0 mm 2 mps 733 mmHg 85%
    05:00 -2°C° 0 mm 2 mps 733 mmHg 85%
    06:00 -2°C° 0 mm 2 mps 734 mmHg 84%
    07:00 -2°C° 0 mm 2 mps 734 mmHg 84%
    08:00 -1°C° 0 mm 2 mps 734 mmHg 77%
    09:00 +1°C° 0 mm 2 mps 734 mmHg 71%
    10:00 +1°C° 0 mm 3 mps 735 mmHg 65%
    11:00 +2°C° 0 mm 3 mps 735 mmHg 62%
    12:00 +3°C° 0 mm 3 mps 734 mmHg 59%
    13:00 +4°C° 0 mm 4 mps 734 mmHg 56%
    14:00 +3°C° 0 mm 4 mps 734 mmHg 57%
    15:00 +3°C° 0 mm 4 mps 734 mmHg 58%
    16:00 +3°C° 0 mm 4 mps 734 mmHg 59%
    17:00 +3°C° 0 mm 3 mps 734 mmHg 62%
    18:00 +2°C° 0 mm 3 mps 733 mmHg 65%
    19:00 +1°C° 0 mm 3 mps 733 mmHg 69%
    20:00 +2°C° 0 mm 3 mps 733 mmHg 68%
    21:00 +2°C° 0 mm 3 mps 733 mmHg 68%
    22:00 +2°C° 0 mm 3 mps 732 mmHg 67%
    23:00 +1°C° 0 mm 4 mps 732 mmHg 67%

    18 October, Friday

    Time Temperature Precipitation Wind Pressure Humidity
    00:00 +1°C° 0 mm 4 mps 731 mmHg 66%
    01:00 +1°C° 0 mm 5 mps 731 mmHg 65%
    02:00 +1°C° 0 mm 5 mps 730 mmHg 64%
    03:00 +1°C° 0 mm 6 mps 730 mmHg 62%
    04:00 +1°C° 0 mm 6 mps 729 mmHg 61%
    05:00 +1°C° 0 mm 6 mps 729 mmHg 61%
    06:00 +1°C° 0 mm 6 mps 728 mmHg 61%
    07:00 0°C° 0 mm 7 mps 728 mmHg 61%
    08:00 +2°C° 0 mm 7 mps 727 mmHg 57%
    09:00 +2°C° 0 mm 8 mps 727 mmHg 53%
    10:00 +5°C° 0 mm 9 mps 727 mmHg 50%
    11:00 +6°C° 0 mm 9 mps 726 mmHg 47%
    12:00 +7°C° 0 mm 9 mps 726 mmHg 45%
    13:00 +8°C° 0 mm 9 mps 726 mmHg 42%
    14:00 +9°C° 0 mm 8 mps 726 mmHg 44%
    15:00 +8°C° 0 mm 7 mps 725 mmHg 47%
    16:00 +8°C° 0 mm 6 mps 725 mmHg 49%
    17:00 +7°C° 0 mm 6 mps 725 mmHg 58%
    18:00 +7°C° 0 mm 5 mps 726 mmHg 66%
    19:00 +6°C° 0 mm 4 mps 726 mmHg 75%
    20:00 +5°C° 0 mm 4 mps 726 mmHg 77%
    21:00 +4°C° 0 mm 4 mps 726 mmHg 79%
    22:00 +3°C° 0 mm 4 mps 727 mmHg 80%
    23:00 +1°C° 0 mm 5 mps 727 mmHg 77%

    19 October, Saturday

    Time Temperature Precipitation Wind Pressure Humidity
    00:00 0°C° 0 mm 5 mps 727 mmHg 74%
    01:00 -1°C° 0 mm 5 mps 728 mmHg 70%
    02:00 -2°C° 0 mm 5 mps 728 mmHg 71%
    03:00 -2°C° 0 mm 5 mps 729 mmHg 72%
    04:00 -2°C° 0 mm 5 mps 729 mmHg 73%
    05:00 -4°C° 0 mm 5 mps 730 mmHg 74%
    06:00 -4°C° 0 mm 6 mps 730 mmHg 75%
    07:00 -4°C° 0 mm 6 mps 731 mmHg 76%
    08:00 -4°C° 0 mm 6 mps 732 mmHg 72%
    09:00 -3°C° 0 mm 6 mps 732 mmHg 68%
    10:00 -2°C° 0 mm 6 mps 733 mmHg 64%
    11:00 -2°C° 0 mm 6 mps 733 mmHg 62%
    12:00 -1°C° 0 mm 6 mps 734 mmHg 60%
    13:00 -1°C° 0 mm 6 mps 734 mmHg 58%
    14:00 0°C° 0 mm 5 mps 734 mmHg 59%
    15:00 -1°C° 0 mm 5 mps 735 mmHg 59%
    16:00 -1°C° 0 mm 5 mps 735 mmHg 60%
    17:00 -2°C° 0 mm 4 mps 735 mmHg 63%
    18:00 -2°C° 0 mm 4 mps 736 mmHg 66%
    19:00 -3°C° 0 mm 4 mps 736 mmHg 69%
    20:00 -3°C° 0 mm 4 mps 736 mmHg 69%
    21:00 -4°C° 0 mm 4 mps 737 mmHg 69%
    22:00 -4°C° 0 mm 4 mps 737 mmHg 69%
    23:00 -4°C° 0 mm 4 mps 737 mmHg 69%
    Show more